Radiation Dose at Monitoring Post of Fukushima Daini Nuclear Power Station
Date,Time,MP-1(microSv/h),MP-2(microSv/h),MP-3(microSv/h),MP-4(microSv/h),MP-5(microSv/h),MP-6(microSv/h),MP-7(microSv/h),Wind Direction,Wind Velocity(m/s),Rain
2020/08/10,00:00,0.176,0.159,0.262,0.248,0.247,0.136,0.083,north-northwest,1.7,No
2020/08/10,00:10,0.175,0.160,0.261,0.252,0.249,0.137,0.083,north-northwest,1.5,No
2020/08/10,00:20,0.174,0.160,0.260,0.250,0.247,0.135,0.083,north,2.0,No
2020/08/10,00:30,0.177,0.159,0.261,0.248,0.246,0.138,0.083,north,2.2,No
2020/08/10,00:40,0.175,0.160,0.263,0.249,0.246,0.137,0.085,northwest,1.3,No
2020/08/10,00:50,0.174,0.161,0.260,0.252,0.249,0.136,0.083,northwest,1.7,No
2020/08/10,01:00,0.177,0.160,0.260,0.248,0.246,0.137,0.084,northwest,1.8,No
2020/08/10,01:10,0.175,0.159,0.262,0.247,0.245,0.138,0.083,west-northwest,1.9,No
2020/08/10,01:20,0.173,0.160,0.260,0.252,0.249,0.137,0.083,west,1.3,No
2020/08/10,01:30,0.176,0.159,0.260,0.249,0.249,0.136,0.083,west-southwest,2.4,No
2020/08/10,01:40,0.175,0.158,0.263,0.248,0.246,0.136,0.084,west,1.9,No
2020/08/10,01:50,0.173,0.160,0.262,0.250,0.245,0.136,0.084,southwest,0.9,No
2020/08/10,02:00,0.176,0.159,0.260,0.250,0.249,0.135,0.084,southeast,1.1,No
2020/08/10,02:10,0.176,0.157,0.262,0.248,0.248,0.138,0.083,south-southeast,2.7,No
2020/08/10,02:20,0.173,0.161,0.262,0.249,0.246,0.137,0.084,south-southwest,1.4,No
2020/08/10,02:30,0.175,0.160,0.260,0.251,0.247,0.136,0.082,southwest,2.6,No
2020/08/10,02:40,0.176,0.158,0.261,0.248,0.249,0.137,0.083,southwest,3.0,No
2020/08/10,02:50,0.175,0.160,0.263,0.248,0.246,0.137,0.084,south,2.5,No
2020/08/10,03:00,0.175,0.159,0.259,0.251,0.244,0.136,0.084,south-southeast,1.8,No
2020/08/10,03:10,0.175,0.160,0.261,0.248,0.249,0.137,0.084,south,2.7,No
2020/08/10,03:20,0.174,0.159,0.263,0.247,0.247,0.137,0.085,southwest,3.7,No
2020/08/10,03:30,0.174,0.159,0.260,0.252,0.246,0.136,0.084,south-southwest,2.3,No
2020/08/10,03:40,0.175,0.159,0.261,0.250,0.246,0.138,0.083,southwest,2.2,No
2020/08/10,03:50,0.174,0.161,0.263,0.248,0.250,0.137,0.084,southwest,2.4,No
2020/08/10,04:00,0.174,0.158,0.261,0.251,0.247,0.136,0.083,west-southwest,3.6,No
2020/08/10,04:10,0.176,0.160,0.259,0.248,0.245,0.137,0.084,west-southwest,2.6,No
2020/08/10,04:20,0.175,0.160,0.263,0.248,0.248,0.136,0.084,southwest,3.3,No
2020/08/10,04:30,0.175,0.159,0.262,0.250,0.249,0.136,0.084,southwest,2.9,No
2020/08/10,04:40,0.176,0.161,0.260,0.250,0.246,0.137,0.084,south-southwest,2.5,No
2020/08/10,04:50,0.175,0.160,0.262,0.248,0.245,0.137,0.084,south-southwest,2.5,No
2020/08/10,05:00,0.175,0.159,0.261,0.251,0.248,0.137,0.083,south-southwest,2.3,No
2020/08/10,05:10,0.176,0.160,0.260,0.250,0.248,0.138,0.084,southwest,2.4,No
2020/08/10,05:20,0.175,0.159,0.263,0.248,0.245,0.137,0.084,south-southwest,1.9,No
2020/08/10,05:30,0.176,0.159,0.261,0.251,0.248,0.137,0.084,south-southwest,2.9,No
2020/08/10,05:40,0.176,0.160,0.259,0.250,0.247,0.138,0.083,south-southwest,3.0,No
2020/08/10,05:50,0.175,0.159,0.264,0.248,0.246,0.137,0.084,south-southwest,3.1,No
2020/08/10,06:00,0.176,0.160,0.262,0.250,0.246,0.135,0.085,south,4.0,No
2020/08/10,06:10,0.176,0.160,0.259,0.251,0.248,0.138,0.082,south-southwest,5.0,No
2020/08/10,06:20,0.174,0.159,0.264,0.249,0.249,0.137,0.084,south-southwest,3.0,No
2020/08/10,06:30,0.175,0.159,0.261,0.247,0.246,0.137,0.084,southwest,3.2,No
2020/08/10,06:40,0.176,0.161,0.259,0.250,0.245,0.136,0.084,southwest,3.0,No
2020/08/10,06:50,0.175,0.161,0.260,0.251,0.245,0.138,0.084,southwest,2.5,No
2020/08/10,07:00,0.174,0.159,0.263,0.248,0.247,0.136,0.084,west-southwest,1.9,No
2020/08/10,07:10,0.176,0.159,0.262,0.247,0.249,0.136,0.085,southwest,1.1,No
2020/08/10,07:20,0.175,0.161,0.261,0.248,0.247,0.137,0.084,west-southwest,1.3,No
2020/08/10,07:30,0.174,0.160,0.260,0.252,0.246,0.138,0.083,southwest,1.2,No
2020/08/10,07:40,0.173,0.159,0.259,0.251,0.244,0.137,0.083,southwest,2.1,No
2020/08/10,07:50,0.176,0.158,0.259,0.249,0.245,0.137,0.083,southwest,2.4,No
2020/08/10,08:00,0.177,0.159,0.261,0.248,0.244,0.137,0.085,south-southwest,2.4,No
2020/08/10,08:10,0.175,0.158,0.265,0.248,0.245,0.138,0.084,southwest,2.3,No
2020/08/10,08:20,0.173,0.159,0.264,0.248,0.246,0.137,0.084,southwest,1.9,No
2020/08/10,08:30,0.175,0.161,0.261,0.247,0.246,0.136,0.084,west-southwest,1.7,No
2020/08/10,08:40,0.176,0.161,0.260,0.247,0.245,0.136,0.084,west-southwest,1.2,No
2020/08/10,08:50,0.176,0.160,0.261,0.248,0.246,0.137,0.083,west-southwest,1.0,No
2020/08/10,09:00,0.174,0.160,0.261,0.249,0.247,0.137,0.083,southwest,1.8,No
2020/08/10,09:10,0.174,0.161,0.262,0.250,0.248,0.138,0.083,south-southwest,1.5,No
2020/08/10,09:20,0.176,0.161,0.261,0.250,0.248,0.138,0.083,south-southwest,2.0,No
2020/08/10,09:30,0.175,0.161,0.262,0.249,0.248,0.138,0.084,south-southwest,2.3,No
2020/08/10,09:40,0.174,0.160,0.262,0.251,0.249,0.137,0.084,south,2.7,No
2020/08/10,09:50,0.175,0.161,0.262,0.251,0.249,0.138,0.084,south,2.8,No
2020/08/10,10:00,0.175,0.160,0.263,0.251,0.248,0.138,0.084,south,4.6,No
2020/08/10,10:10,0.175,0.160,0.263,0.250,0.249,0.137,0.084,south,5.2,No
2020/08/10,10:20,0.177,0.160,0.263,0.251,0.250,0.138,0.084,south-southeast,5.7,No
2020/08/10,10:30,0.175,0.161,0.264,0.251,0.250,0.137,0.084,south-southeast,5.8,No
2020/08/10,10:40,0.177,0.162,0.264,0.252,0.249,0.138,0.084,south-southeast,4.6,No
2020/08/10,10:50,0.176,0.162,0.264,0.252,0.250,0.138,0.085,south-southeast,5.0,No
2020/08/10,11:00,0.177,0.162,0.265,0.252,0.249,0.138,0.084,south-southeast,4.7,No
2020/08/10,11:10,0.177,0.161,0.264,0.253,0.248,0.138,0.084,south-southeast,7.2,No
2020/08/10,11:20,0.175,0.161,0.265,0.252,0.249,0.138,0.084,south-southeast,7.2,No
2020/08/10,11:30,0.176,0.161,0.265,0.252,0.248,0.138,0.085,south-southeast,7.0,No
2020/08/10,11:40,0.175,0.162,0.263,0.252,0.248,0.139,0.085,south-southeast,4.7,No
2020/08/10,11:50,0.175,0.162,0.263,0.252,0.248,0.139,0.084,south-southeast,5.1,No
2020/08/10,12:00,0.176,0.160,0.263,0.252,0.249,0.139,0.084,southeast,6.3,No
2020/08/10,12:10,0.176,0.161,0.264,0.252,0.248,0.138,0.084,south-southeast,7.4,No
2020/08/10,12:20,0.176,0.161,0.263,0.252,0.248,0.137,0.084,south-southeast,7.0,No
2020/08/10,12:30,0.177,0.161,0.262,0.253,0.248,0.138,0.085,south-southeast,6.5,No
2020/08/10,12:40,0.177,0.161,0.264,0.252,0.248,0.139,0.085,south-southeast,5.0,No
2020/08/10,12:50,0.176,0.160,0.262,0.251,0.248,0.138,0.084,south-southeast,5.9,No
2020/08/10,13:00,0.176,0.161,0.263,0.252,0.248,0.138,0.084,south-southeast,5.7,No
2020/08/10,13:10,0.176,0.160,0.263,0.252,0.248,0.138,0.084,south,3.4,No
2020/08/10,13:20,0.177,0.161,0.265,0.252,0.247,0.138,0.085,south,3.9,No
2020/08/10,13:30,0.177,0.162,0.264,0.251,0.247,0.138,0.084,south,4.0,No
2020/08/10,13:40,0.177,0.161,0.265,0.252,0.246,0.138,0.084,south-southeast,2.2,No
2020/08/10,13:50,0.176,0.160,0.262,0.252,0.244,0.138,0.084,southeast,2.9,No
2020/08/10,14:00,0.177,0.160,0.262,0.252,0.246,0.138,0.084,southeast,4.0,No
2020/08/10,14:10,0.177,0.160,0.262,0.252,0.246,0.138,0.085,south-southeast,4.9,No
2020/08/10,14:20,0.177,0.160,0.262,0.250,0.246,0.138,0.084,south-southeast,3.9,No
2020/08/10,14:30,0.176,0.161,0.262,0.251,0.245,0.137,0.084,southeast,5.1,No
2020/08/10,14:40,0.176,0.160,0.263,0.251,0.246,0.137,0.084,southeast,4.4,No
2020/08/10,14:50,0.176,0.160,0.263,0.252,0.246,0.137,0.083,southeast,2.6,No
2020/08/10,15:00,0.176,0.158,0.263,0.250,0.246,0.136,0.083,southeast,2.8,No
2020/08/10,15:10,0.175,0.160,0.261,0.250,0.245,0.136,0.083,south-southeast,6.0,No
2020/08/10,15:20,0.175,0.159,0.261,0.251,0.246,0.137,0.083,south-southeast,7.0,No
2020/08/10,15:30,0.175,0.158,0.261,0.250,0.247,0.137,0.083,south,8.7,No
2020/08/10,15:40,0.176,0.159,0.260,0.250,0.244,0.136,0.083,south,7.3,No
2020/08/10,15:50,0.174,0.159,0.260,0.250,0.245,0.137,0.083,south,6.8,No
2020/08/10,16:00,0.175,0.158,0.260,0.249,0.245,0.137,0.084,south,6.4,No
2020/08/10,16:10,0.175,0.159,0.262,0.250,0.245,0.138,0.083,south,4.7,No
2020/08/10,16:20,0.175,0.160,0.262,0.250,0.247,0.137,0.083,south,2.1,No
2020/08/10,16:30,0.176,0.160,0.261,0.250,0.246,0.137,0.084,south-southeast,2.7,No
2020/08/10,16:40,0.176,0.159,0.261,0.250,0.247,0.137,0.083,south,4.0,No
2020/08/10,16:50,0.175,0.160,0.263,0.251,0.248,0.137,0.083,south,2.7,No
2020/08/10,17:00,0.175,0.160,0.262,0.251,0.248,0.137,0.083,south,4.1,No
2020/08/10,17:10,0.176,0.159,0.262,0.250,0.247,0.137,0.083,south,4.1,No
2020/08/10,17:20,0.175,0.160,0.261,0.251,0.247,0.136,0.083,south,2.5,No
2020/08/10,17:30,0.175,0.159,0.261,0.251,0.245,0.137,0.083,southeast,0.6,No
2020/08/10,17:40,0.175,0.159,0.262,0.251,0.246,0.136,0.083,-,CALM,No
2020/08/10,17:50,0.175,0.160,0.263,0.248,0.245,0.137,0.083,south,2.2,No
2020/08/10,18:00,0.175,0.159,0.261,0.250,0.245,0.138,0.083,south,4.1,No
2020/08/10,18:10,0.175,0.160,0.262,0.250,0.245,0.137,0.084,south-southeast,4.6,No
2020/08/10,18:20,0.177,0.159,0.260,0.249,0.245,0.137,0.084,south,5.1,No
2020/08/10,18:30,0.177,0.158,0.262,0.253,0.245,0.138,0.083,south,3.3,No
2020/08/10,18:40,0.176,0.161,0.261,0.253,0.245,0.137,0.083,south,4.3,No
2020/08/10,18:50,0.175,0.161,0.266,0.253,0.244,0.137,0.084,south,3.9,No
2020/08/10,19:00,0.175,0.160,0.266,0.251,0.248,0.137,0.083,south,3.7,No
2020/08/10,19:10,0.177,0.159,0.264,0.251,0.249,0.137,0.083,south,2.9,No
2020/08/10,19:20,0.177,0.159,0.263,0.255,0.249,0.138,0.082,south,2.9,No
2020/08/10,19:30,0.175,0.160,0.261,0.253,0.246,0.138,0.084,south-southwest,1.1,No
2020/08/10,19:40,0.174,0.160,0.265,0.251,0.245,0.137,0.084,south,1.8,No
2020/08/10,19:50,0.176,0.159,0.266,0.249,0.247,0.137,0.083,south,2.4,No
2020/08/10,20:00,0.176,0.160,0.263,0.252,0.249,0.138,0.083,south,2.6,No
2020/08/10,20:10,0.177,0.161,0.261,0.253,0.247,0.138,0.084,south,3.3,No
2020/08/10,20:20,0.174,0.160,0.262,0.251,0.245,0.137,0.084,south,4.9,No
2020/08/10,20:30,0.177,0.158,0.266,0.249,0.247,0.137,0.083,south,2.1,No
2020/08/10,20:40,0.178,0.162,0.264,0.253,0.250,0.138,0.084,south,2.9,No
2020/08/10,20:50,0.177,0.161,0.263,0.253,0.250,0.139,0.084,south,2.7,No
2020/08/10,21:00,0.174,0.161,0.264,0.252,0.247,0.137,0.084,south-southwest,2.7,No
2020/08/10,21:10,0.177,0.161,0.266,0.251,0.246,0.138,0.084,south,2.4,No
2020/08/10,21:20,0.177,0.162,0.265,0.253,0.250,0.138,0.085,south,3.6,No
2020/08/10,21:30,0.176,0.163,0.263,0.254,0.251,0.139,0.084,south-southwest,3.6,No
2020/08/10,21:40,0.176,0.160,0.264,0.252,0.248,0.138,0.084,south-southwest,3.5,No
2020/08/10,21:50,0.177,0.160,0.266,0.250,0.246,0.137,0.084,south-southwest,1.8,No
2020/08/10,22:00,0.177,0.162,0.265,0.254,0.247,0.139,0.085,southwest,0.7,No
2020/08/10,22:10,0.176,0.162,0.263,0.254,0.252,0.140,0.084,west-southwest,0.8,No
2020/08/10,22:20,0.176,0.161,0.265,0.251,0.250,0.138,0.084,southwest,1.4,No
2020/08/10,22:30,0.179,0.163,0.266,0.252,0.247,0.139,0.085,south-southwest,0.7,No
2020/08/10,22:40,0.177,0.162,0.266,0.255,0.247,0.139,0.085,south,0.7,No
2020/08/10,22:50,0.176,0.160,0.264,0.254,0.251,0.139,0.084,south,0.6,No
2020/08/10,23:00,0.178,0.162,0.267,0.251,0.250,0.138,0.085,south-southwest,0.9,No
2020/08/10,23:10,0.177,0.162,0.266,0.254,0.247,0.139,0.085,south-southwest,1.3,No
2020/08/10,23:20,0.177,0.161,0.263,0.254,0.248,0.139,0.086,southwest,2.1,No
2020/08/10,23:30,0.178,0.162,0.264,0.252,0.251,0.138,0.086,southwest,3.0,No
2020/08/10,23:40,0.180,0.163,0.266,0.253,0.249,0.139,0.086,south,2.2,No
2020/08/10,23:50,0.177,0.161,0.265,0.254,0.248,0.140,0.085,south,2.0,No
